Location: Linz
(48.3300°N, 14.3000°E)
Time: 13:32:02
(UTC+01:00)

Envisat - Pass Details

Date: 12 November 2017
Orbit: 764 x 766 km, 98.2° (Epoch: 22 November)

Event Time Altitude Azimuth Distance (km) Brightness Sun altitude
Exits shadow 19:08:32 22° 5° (N) 1,653 4.7 -26.7°
Drops below altitude 10° 19:10:22 10° 356° (N) 2,314 5.5 -27.0°
Sets 19:12:44 0° 351° (N) 3,244 6.4 -27.4°
